TimeEEST,TemperatureF,Dew PointF,Humidity,Sea Level PressureIn,VisibilityMPH,Wind Direction,Wind SpeedMPH,Gust SpeedMPH,PrecipitationIn,Events,Conditions,WindDirDegrees,DateUTC
12:50 AM,59.0,42.8,55,29.68,6.2,West,5.8,-,N/A,,Partly Cloudy,270,2013-04-03 21:50:00
1:50 AM,57.2,42.8,59,29.68,6.2,North,10.4,-,N/A,,Partly Cloudy,350,2013-04-03 22:50:00
2:50 AM,55.4,42.8,63,29.68,6.2,NE,6.9,-,N/A,,Partly Cloudy,40,2013-04-03 23:50:00
3:50 AM,55.4,42.8,63,29.68,-9999.0,North,6.9,-,N/A,,Clear,360,2013-04-04 00:50:00
4:50 AM,59.0,41.0,51,29.71,-9999.0,NW,9.2,-,N/A,,Clear,310,2013-04-04 01:50:00
5:50 AM,55.4,42.8,63,29.71,-9999.0,North,6.9,-,N/A,,Clear,10,2013-04-04 02:50:00
6:20 AM,53.6,42.8,67,29.71,-9999.0,North,6.9,-,N/A,,Clear,10,2013-04-04 03:20:00
6:50 AM,53.6,42.8,67,29.74,-9999.0,North,5.8,-,N/A,,Clear,360,2013-04-04 03:50:00
7:20 AM,53.6,42.8,67,29.74,-9999.0,NNE,5.8,-,N/A,,Clear,20,2013-04-04 04:20:00
7:50 AM,53.6,42.8,67,29.74,-9999.0,North,5.8,-,N/A,,Clear,10,2013-04-04 04:50:00
8:20 AM,59.0,42.8,55,29.74,-9999.0,NE,4.6,-,N/A,,Clear,40,2013-04-04 05:20:00
8:50 AM,60.8,42.8,52,29.77,-9999.0,Calm,Calm,-,N/A,,Clear,0,2013-04-04 05:50:00
9:20 AM,62.6,42.8,48,29.77,-9999.0,WSW,4.6,-,N/A,,Clear,240,2013-04-04 06:20:00
9:50 AM,64.4,42.8,45,29.74,-9999.0,WNW,9.2,-,N/A,,Clear,290,2013-04-04 06:50:00
10:20 AM,64.4,41.0,42,29.74,-9999.0,WNW,11.5,-,N/A,,Clear,290,2013-04-04 07:20:00
10:50 AM,66.2,39.2,37,29.77,-9999.0,WNW,11.5,23.0,N/A,,Clear,290,2013-04-04 07:50:00
11:20 AM,66.2,41.0,40,29.77,-9999.0,WNW,16.1,27.6,N/A,,Clear,290,2013-04-04 08:20:00
11:50 AM,68.0,39.2,35,29.77,-9999.0,WNW,17.3,28.8,N/A,,Clear,290,2013-04-04 08:50:00
12:20 PM,69.8,39.2,33,29.77,-9999.0,WNW,17.3,29.9,N/A,,Clear,290,2013-04-04 09:20:00
12:50 PM,69.8,39.2,33,29.80,6.2,WNW,18.4,32.2,N/A,,Partly Cloudy,290,2013-04-04 09:50:00
1:20 PM,69.8,41.0,35,29.80,6.2,WNW,18.4,31.1,N/A,,Partly Cloudy,290,2013-04-04 10:20:00
1:50 PM,69.8,39.2,33,29.80,6.2,West,16.1,27.6,N/A,,Partly Cloudy,280,2013-04-04 10:50:00
2:20 PM,69.8,39.2,33,29.80,6.2,West,12.7,24.2,N/A,,Partly Cloudy,280,2013-04-04 11:20:00
2:50 PM,69.8,37.4,31,29.80,6.2,West,15.0,26.5,N/A,,Partly Cloudy,270,2013-04-04 11:50:00
3:20 PM,71.6,37.4,29,29.80,6.2,West,11.5,23.0,N/A,,Partly Cloudy,280,2013-04-04 12:20:00
3:50 PM,71.6,37.4,29,29.80,6.2,West,10.4,21.9,N/A,,Partly Cloudy,280,2013-04-04 12:50:00
4:20 PM,71.6,37.4,29,29.80,6.2,West,15.0,-,N/A,,Partly Cloudy,260,2013-04-04 13:20:00
4:50 PM,71.6,37.4,29,29.80,6.2,West,10.4,-,N/A,,Partly Cloudy,270,2013-04-04 13:50:00
5:20 PM,71.6,35.6,27,29.80,6.2,West,10.4,-,N/A,,Partly Cloudy,270,2013-04-04 14:20:00
5:50 PM,71.6,37.4,29,29.80,6.2,WNW,11.5,-,N/A,,Partly Cloudy,290,2013-04-04 14:50:00
6:20 PM,69.8,39.2,33,29.80,6.2,West,10.4,-,N/A,,Partly Cloudy,280,2013-04-04 15:20:00
6:50 PM,69.8,39.2,33,29.83,6.2,WNW,11.5,-,N/A,,Partly Cloudy,290,2013-04-04 15:50:00
7:20 PM,68.0,39.2,35,29.83,6.2,WNW,9.2,-,N/A,,Partly Cloudy,290,2013-04-04 16:20:00
7:50 PM,66.2,39.2,37,29.83,6.2,NNW,13.8,-,N/A,,Partly Cloudy,330,2013-04-04 16:50:00
8:20 PM,64.4,39.2,40,29.83,6.2,NW,6.9,-,N/A,,Partly Cloudy,320,2013-04-04 17:20:00
8:50 PM,60.8,41.0,48,29.83,6.2,Calm,Calm,-,N/A,,Partly Cloudy,0,2013-04-04 17:50:00
9:20 PM,60.8,41.0,48,29.83,6.2,NNE,5.8,-,N/A,,Partly Cloudy,20,2013-04-04 18:20:00
9:50 PM,62.6,41.0,45,29.89,6.2,North,6.9,-,N/A,,Partly Cloudy,360,2013-04-04 18:50:00
10:20 PM,60.8,41.0,48,29.89,6.2,North,5.8,-,N/A,,Partly Cloudy,10,2013-04-04 19:20:00
10:50 PM,59.0,41.0,51,29.89,6.2,North,6.9,-,N/A,,Partly Cloudy,350,2013-04-04 19:50:00
11:20 PM,59.0,41.0,51,29.89,6.2,North,6.9,-,N/A,,Partly Cloudy,360,2013-04-04 20:20:00
11:50 PM,59.0,41.0,51,29.92,6.2,Calm,Calm,-,N/A,,Partly Cloudy,0,2013-04-04 20:50:00